Simultaneous Nadir Overpasses (SNOs) Predictions

Prediction of SNOs between GOES-15 and TERRA Satellite Orbit:

Table of predicted SNOs for the next 14.0 days since TLE Epoch: 5/12/2012
Index Date Time (GOES-15) GOES-15 Lat,Lon TERRA Lat,Lon Distance(km) Time Diff (sec)
1 05/12/2012 19:33:41 -0.12,-135.38 -0.09,-135.65 30.19 80
2 05/14/2012 19:18:49 -0.13,-135.41 -0.72,-132.70 308.91 80
3 05/15/2012 07:42:53 0.11,-135.40 -0.39,-137.89 282.13 80
4 05/17/2012 07:28:00 0.11,-135.42 0.19,-134.92 56.49 80
5 05/19/2012 07:15:48 0.12,-135.43 0.85,-131.96 394.38 80
6 05/19/2012 19:39:43 -0.10,-135.45 0.26,-137.11 189.57 80
7 05/21/2012 19:24:51 -0.11,-135.45 -0.40,-134.16 147.56 80
8 05/22/2012 07:48:54 0.09,-135.44 -0.75,-139.34 443.69 80
9 05/23/2012 19:12:38
